Location: Observatory
(52.1446°N, 0.4624°W)
Time: 14:09:11
(UTC+01:00)

ISS - Pass Details

Date: 15 October 2017
Orbit: 401 x 408 km, 51.6° (Epoch: 18 October)

Event Time Altitude Azimuth Distance (km) Brightness Sun altitude
Rises 18:55:36 0° 280° (W) 2,325 1.9 -8.2°
Reaches altitude 10° 18:58:11 10° 259° (W) 1,463 0.6 -8.6°
Maximum altitude 19:00:22 17° 217° (SW) 1,121 -1.0 -8.9°
Drops below altitude 10° 19:02:33 10° 175° (S) 1,460 -1.0 -9.2°
Sets 19:05:07 0° 154° (SSE) 2,317 -0.2 -9.6°
